Simultaneous Nadir Overpasses (SNOs) Predictions

Prediction of SNOs between LANDSAT-8 and METOP-A Satellite Orbit:

Table of predicted SNOs for the next 14.0 days since TLE Epoch: 6/23/2017
Index Date (LANDSAT-8) Time (LANDSAT-8) Lat,Lon (LANDSAT-8) SZA (LANDSAT-8 ) Date (METOP-A) Time (METOP-A) Lat,Lon (METOP-A) SZA (METOP-A ) Distance(km) Time Diff (sec)
1 06/26/2017 07:24:55 81.21, 110.15 60.09 06/26/2017 07:24:29 81.21, 110.08 60.08 1.29 26
2 06/26/2017 08:14:21 -81.23, -81.92 119.87 06/26/2017 08:15:08 -81.23, -81.99 119.85 1.26 47
3 06/29/2017 02:59:11 81.21, 176.56 60.20 06/29/2017 02:58:50 81.21, 176.48 60.18 1.34 21
4 06/29/2017 03:48:37 -81.23, -15.49 119.76 06/29/2017 03:49:29 -81.23, -15.56 119.74 1.19 52
5 07/01/2017 22:33:26 81.23,-116.69 60.41 07/01/2017 22:33:10 81.22,-116.76 60.39 1.29 16
6 07/01/2017 23:22:53 -81.22, 50.92 119.60 07/01/2017 23:23:50 -81.23, 50.86 119.57 1.05 57
7 07/04/2017 18:07:41 81.22, -50.34 60.62 07/04/2017 18:07:30 81.22, -50.40 60.60 1.01 11
8 07/04/2017 18:57:07 -81.24, 117.67 119.33 07/04/2017 18:58:09 -81.24, 117.64 119.31 0.71 62
9 07/07/2017 13:41:57 81.21, 15.98 60.87 07/07/2017 13:41:51 81.22, 15.93 60.87 0.85 6




NCC Satellite Simultaneous Nadir Overpasses (SNOs) Prediction Service
